This is the latest recevied weather packets stored in our database for station/object WY7ATH-2. If no packets are shown the sender has not sent any weather packets the latest 10 day(s).
| Time | Temp. | Humidity | Pressure | Rain* | Wind** | Luminosity | Snow |
|---|---|---|---|---|---|---|---|
| 1777852595 | 17.22° C | - | - | 13.46 mm | 0 m/s | - | - |
| 1777850804 | 18.89° C | - | - | 13.46 mm | 0 m/s | - | - |
| 1777848411 | 20° C | - | - | 12.7 mm | 0 m/s | - | - |
| 1777847814 | 20° C | - | - | 12.7 mm | 0 m/s | - | - |
| 1777847217 | 20° C | - | - | 12.7 mm | 0 m/s | - | - |
| 1777846620 | 20° C | - | - | 12.7 mm | 0 m/s | - | - |
| 1777844825 | 20.56° C | - | - | 13.97 mm | 0 m/s | - | - |
| 1777843035 | 19.44° C | - | - | 13.97 mm | 0 m/s | - | - |
| 1777842434 | 18.89° C | - | - | 13.97 mm | 0 m/s | - | - |
| 1777841837 | 19.44° C | - | - | 12.45 mm | 0 m/s | - | - |
| 1777840046 | 20.56° C | - | - | 12.45 mm | 0 m/s | - | - |
| 1777839449 | 20° C | - | - | 12.45 mm | 0 m/s | - | - |
| 1777838849 | 20° C | - | - | 12.45 mm | 0 m/s | - | - |
| 1777838252 | 18.89° C | - | - | 12.95 mm | 0 m/s | - | - |
| 1777837655 | 18.33° C | - | - | 12.95 mm | 0 m/s | - | - |
| 1777837058 | 19.44° C | - | - | 12.95 mm | 0 m/s | - | - |
| 1777836461 | 18.89° C | - | - | 12.95 mm | 0 m/s | - | - |
| 1777834667 | 17.78° C | - | - | 16 mm | 0 m/s | - | - |
| 1777834070 | 15.56° C | - | - | 16 mm | 0 m/s | - | - |
| 1777833473 | 18.33° C | - | - | 16 mm | 0 m/s | - | - |
| 1777832279 | 15.56° C | - | - | 16 mm | 0 m/s | - | - |
| 1777831678 | 17.22° C | - | - | 16 mm | 0 m/s | - | - |
| 1777831081 | 15° C | - | - | 17.27 mm | 0 m/s | - | - |
| 1777830484 | 16.11° C | - | - | 17.27 mm | 0 m/s | - | - |
| 1777829887 | 16.67° C | - | - | 17.27 mm | 0 m/s | - | - |
* Rain latest hour (hover to see other rain measurements)
** Current wind speed in m/s (hover to see current wind gust speed)